IRIDIUM 144 (43249 NORAD) Tracking and Keplerian Element Data

This shows tracking and keplerian element data for the satellite.

Feedback or suggestion? Click here.




ElementValue
Catalog43249
NameIRIDIUM 144
Epoch Orbit35870
Epoch Day34.80430033
Epoch Year2025
RAAN138.773
Inclination86.4011
Eccentricity0.0002226
Argument of Perigee96.9688
Mean Anonmoly263.1761
Mean Motion14.34218167
Decay Rate6.72E-06
L11 43249U 18030A 25034.80430033 .00000672 00000+0 23271-3 0 9991
L22 43249 86.4011 138.7730 0002226 96.9688 263.1761 14.34218167358707



Live tracking and technical data element details for IRIDIUM 144 (NORAD 43249). IRIDIUM 144 can be tracked NOW for your location showing map with azimuth and elevation plus other details from your city location.







IsCatalogInMostPopularTable: catalog: 43249, numindb: 584
Update: records affected: 1



GetName: 43249 IRIDIUM 144

Hit Count: updated at: Thu, 22 May 2025 04:12:59 GMT